SCP
0 0 -0 0 0 0 -0 -0 -0 0 0 0 0 0 0 0 0 0 -0 -0 -0 -0 0 0 0 -0 0 0 0 -0 -0 -0 -0 -0 -0 -0 -0 -0 -0 -0 -0 -0 -0 -0 -0 -0 -0 -0 -0
0 0 0 0 0 0 -0 -0 -0 0 0 0 0 0 0 0 0 0 0 -0 -0 -0 0 0 -0 0 -0 -0 -0 0 -0 -0 -0 -0 -0 -0 -0 -0 -0 -0 -0 -0 -0 -0 -0 -0 -0 -0 -0
0 0 0 0 0 0 -0 -0 0 0 0 0 0 0 0 0 -0 0 -0 -0 -0 0 0 0 0 0 -0 -0 0 0 0 -0 -0 -0 -0 -0 -0 -0 -0 -0 -0 -0 -0 -0 -0 -0 -0 -0 -0
0 0 0 0 0 0 0 0 0 0 0 0 0 0 0 0 0 -0 0 -0 -0 0 0 0 0 0 -0 0 -0 0 -0 -0 -0 -0 -0 -0 -0 -0 -0 -0 -0 -0 -0 -0 -0 -0 -0 -0 -0
0 0 0 0 0 0 0 0 0 0 0 0 0 0 0 0 -0 -0 -0 -0 -0 0 0 0 0 0 0 -0 -0 0 0 -0 -0 -0 -0 -0 -0 -0 -0 -0 -0 -0 -0 -0 -0 -0 -0 -0 -0
0 0 0 0 0 0 0 0 0 0 0 0 0 0 0 0 -0 -0 0 0 -0 -0 0 0 0 0 0 -0 0 0 0 -0 -0 -0 -0 -0 -0 -0 -0 -0 -0 -0 -0 -0 -0 -0 -0 -0 -0
0 0 0 0 0 0 0 0 0 0 0 0 0 0 0 0 0 -0 0 0 0 0 0 0 0 0 0 0 0 0 -0 -0 -0 -0 -0 -0 -0 -0 -0 -0 -0 -0 -0 -0 -0 -0 -0 -0 -0
0 0 0 0 0 0 0 0 0 0 0 0 0 0 -0 -0 -0 -0 -0 0 -0 -0 -0 0 0 0 0 0 0 0 0 0 0 -0 -0 -0 -0 -0 -0 -0 -0 -0 -0 -0 -0 -0 -0 -0 -0
0 0 0 0 0 0 0 0 0 0 0 0 0 0 0 -0 -0 -0 -0 -0 -0 -0 -0 0 0 0 0 0 0 0 0 -0 -0 0 -0 -0 -0 -0 -0 -0 -0 -0 -0 -0 -0 -0 -0 -0 0
0 0 0 0 0 0 0 0 0 0 0 0 0 0 0 -0 -0 -0 -0 -0 -0 -0 -0 0 0 0 0 0 0 0 0 0 0 0 -0 0 -0 -0 -0 -0 -0 -0 -0 -0 -0 0 0 0 0
0 0 0 0 0 0 0 0 0 0 0 0 0 0 0 -0 -0 -0 -0 -0 -0 -0 -0 -0 0 0 0 0 0 0 0 0 0 0 0 0 0 0 0 0 0 0 0 0 0 0 0 0 0
0 0 0 0 0 0 0 0 0 0 0 0 0 0 0 -0 -0 -0 -0 -0 -0 -0 -0 -0 0 0 0 0 0 0 0 0 0 0 0 0 0 0 0 0 0 0 0 0 0 0 0 0 0
0 -0 0 0 0 0 0 0 0 0 0 0 0 0 0 0 0 0 0 0 0 0 -0 -0 0 0 0 0 0 0 0 0 0 0 0 0 0 0 0 0 0 0 0 0 0 0 0 0 0
0 0 0 0 0 0 0 0 0 0 0 0 0 0 0 0 0 0 0 0 0 0 0 0 0 0 0 0 0 0 0 0 0 0 0 0 0 0 0 0 0 0 0 0 0 0 0 0 0
0 0 0 0 0 0 0 0 0 0 0 0 0 0 0 0 0 0 0 0 0 0 0 0 0 0 0 0 0 0 0 0 0 0 0 0 0 0 0 0 0 0 0 0 0 0 0 0 0
0 0 0 0 0 0 0 -0 0 0 0 0 0 0 0 0 0 0 0 0 0 0 0 0 0 0 0 0 0 0 0 0 0 0 0 0 0 0 0 0 0 0 0 0 0 0 0 0 0
0 0 0 0 0 0 0 -0 -0 0 0 0 0 0 0 0 0 0 0 0 0 0 0 0 0 0 0 0 0 0 0 0 0 0 0 0 0 0 0 0 0 0 0 0 0 0 0 0 0
0 0 0 0 0 0 0 -0 0 0 0 0 0 0 0 0 0 0 0 0 0 0 0 0 0 0 0 0 0 0 0 0 0 0 0 0 0 0 0 0 0 0 0 0 0 0 0 0 0
0 0 0 0 0 0 0 0 0 0 0 0 0 0 0 0 0 0 0 0 0 0 0 0 0 0 0 0 0 0 0 0 0 0 0 0 0 0 0 0 0 0 0 0 0 0 0 0 0
0 0 0 0 0 0 0 0 0 -0 0 0 0 0 0 0 -0 -0 0 0 0 0 0 0 0 0 0 0 0 0 0 0 0 0 0 0 0 0 0 0 0 0 0 0 0 0 0 0 0
0 0 0 0 0 0 0 -0 0 -0 0 0 0 -0 -0 -0 -0 -0 -0 -0 -0 -0 -0 0 0 0 0 0 0 0 0 0 0 0 0 0 0 0 0 0 0 0 0 0 0 0 0 0 0
0 0 0 0 0 0 0 -0 -0 0 0 0 0 0 0 -0 -0 -0 -0 0 -0 -0 -0 -0 -0 -0 0 -0 0 0 0 0 0 0 0 0 0 0 0 0 0 0 0 0 0 0 0 0 0
0 0 0 0 0 0 0 0 -0 0 0 0 0 0 0 0 0 0 0 0 0 0 0 -0 -0 -0 -0 -0 -0 0 0 0 0 0 0 0 0 0 0 0 0 0 0 0 0 0 0 0 0
0 0 0 0 0 0 0 0 -0 0 0 0 0 0 0 0 0 0 0 0 0 0 0 0 0 0 -0 -0 -0 -0 0 0 0 0 0 0 0 0 0 0 0 0 0 0 0 0 0 0 0
0 0 0 0 0 0 0 0 0 0 0 0 0 0 0 0 0 0 0 0 0 0 0 0 0 0 0 0 0 0 0 0 0 0 0 0 0 0 0 0 0 0 0 0 0 0 0 0 0
0 0 0 0 0 0 0 0 0 -0 0 0 0 0 0 0 0 0 0 0 0 0 0 0 0 0 0 0 0 0 0 0 0 0 0 0 0 0 0 0 0 0 0 0 0 0 0 0 0
0 0 0 0 0 0 0 0 0 0 0 0 0 0 0 0 0 0 0 0 0 0 0 0 0 0 0 0 0 0 0 0 0 0 0 0 0 0 0 0 0 0 0 0 0 0 0 0 0
0 0 0 0 0 0 0 0 0 -0 0 0 0 0 0 0 0 0 0 0 0 0 0 0 0 0 0 0 0 0 0 0 0 0 0 0 0 0 0 0 0 0 0 0 0 0 0 0 0
0 0 0 0 0 0 0 0 0 0 0 0 0 0 0 0 0 0 0 0 0 0 0 0 0 0 0 0 0 0 0 0 0 0 0 0 0 0 0 0 0 0 0 0 0 0 0 0 0
0 0 0 0 0 0 0 0 0 0 0 0 0 0 0 0 0 0 0 0 0 0 0 0 0 0 0 0 0 0 0 0 0 0 0 0 0 0 0 0 0 0 0 0 0 0 0 0 0
Wind_Speed_500mb
21 26 27 9 8 9 1 5 2 7 2 4 9 7 10 6 5 5 35 35 41 35 30 24 20 20 19 19 18 21 16 12 9 7 6 8 12 17 18 23 27 27 29 30 30 32 31 31 35
23 22 17 6 9 6 6 4 8 8 18 30 20 11 7 2 8 22 44 44 43 33 24 17 19 19 22 21 20 18 10 6 8 6 5 13 17 21 24 26 29 28 28 29 31 28 30 32 32
22 19 11 8 6 5 7 7 9 8 32 5 8 8 4 6 12 33 28 54 50 28 18 18 18 22 24 24 20 13 8 5 6 7 9 16 23 23 25 25 28 26 26 26 27 26 30 30 30
22 9 9 7 4 4 5 9 13 16 9 6 14 12 7 2 24 30 43 52 41 27 21 16 19 21 23 22 19 15 12 12 13 11 11 15 22 24 23 23 24 24 22 25 23 25 28 27 27
17 7 7 3 8 5 6 17 27 10 8 11 8 9 10 21 17 22 44 45 35 28 21 15 16 18 20 21 19 18 14 24 23 18 12 18 23 23 22 21 21 21 18 20 23 23 23 25 27
6 4 7 4 7 5 4 18 15 8 12 13 9 16 11 21 16 35 35 32 28 22 18 15 14 17 17 20 20 20 13 26 29 25 19 16 23 21 19 19 20 18 15 16 20 20 21 23 25
4 7 5 4 6 7 9 21 12 14 12 12 17 10 9 27 23 36 31 25 22 23 19 15 16 16 18 21 24 19 16 20 27 24 26 19 16 18 18 16 16 15 13 13 15 16 17 19 21
13 5 4 6 5 10 9 22 10 18 13 9 21 10 9 38 39 39 31 24 22 23 20 18 17 18 18 22 27 27 29 25 23 19 23 22 17 20 18 15 14 13 12 11 11 12 14 16 17
7 1 5 8 10 10 14 10 13 12 15 19 19 10 10 40 48 47 45 38 32 29 26 24 19 20 20 19 26 31 35 32 24 17 15 25 20 16 16 13 12 12 12 11 9 9 10 10 11
5 6 15 11 8 8 17 20 33 14 20 19 19 22 16 45 53 54 54 49 40 35 32 26 24 21 21 23 18 21 26 26 21 17 11 16 16 15 15 14 14 15 14 13 10 5 3 4 5
4 8 6 11 19 22 16 11 28 21 7 29 36 35 31 52 54 54 50 46 37 32 32 30 26 25 24 22 20 16 12 13 13 12 11 13 13 12 13 12 10 9 9 9 8 7 5 3 4
8 11 28 14 15 8 10 12 13 34 21 24 30 30 39 53 58 58 56 52 45 39 34 30 30 27 26 24 21 19 18 18 20 20 20 17 15 14 14 14 13 11 10 9 8 9 11 11 10
8 5 21 33 42 24 15 22 15 38 24 15 28 33 43 47 53 53 53 50 47 43 37 33 32 31 30 27 24 23 20 18 18 18 17 15 13 13 14 14 13 13 11 11 11 11 12 13 15
15 7 30 31 44 24 8 9 13 20 40 26 30 37 45 45 51 53 58 57 53 46 41 35 33 33 32 30 27 25 23 22 22 22 19 17 15 15 15 16 15 15 15 16 16 16 15 16 17
9 10 31 41 37 17 5 12 15 18 32 30 38 43 47 50 51 54 50 56 54 49 43 39 35 36 35 32 33 29 28 28 27 25 25 22 20 19 18 18 17 17 19 21 20 20 21 21 21
10 8 13 12 15 15 14 18 19 26 34 36 39 47 50 52 54 51 51 52 53 53 51 45 41 41 38 35 35 32 31 33 31 31 31 28 25 24 23 23 21 21 23 23 24 24 26 26 27
22 18 34 31 31 4 3 12 18 30 37 42 44 49 52 54 56 54 54 53 54 55 54 52 50 47 44 40 38 37 37 38 38 38 37 35 33 32 31 29 25 26 28 29 29 29 31 31 32
24 30 24 24 11 1 11 33 19 11 34 47 50 53 56 58 60 52 53 55 58 58 57 57 55 53 50 48 46 46 45 45 45 46 46 42 41 39 38 35 34 35 36 36 35 36 37 37 36
15 10 29 21 9 13 29 30 20 33 22 48 54 57 61 64 57 56 53 53 56 61 64 64 64 63 61 61 60 60 60 54 52 52 50 49 48 46 46 45 43 44 45 43 42 42 43 44 43
24 25 26 11 8 13 10 30 31 17 29 48 60 67 68 69 66 63 58 58 58 56 59 67 69 69 69 67 65 65 61 62 58 54 55 56 56 55 54 53 51 50 53 53 52 51 53 53 49
36 35 17 10 7 5 5 20 16 15 50 60 61 57 70 76 75 69 67 67 62 60 61 62 66 71 72 72 69 68 70 70 68 68 65 63 61 60 60 60 59 59 59 62 61 60 61 62 58
47 19 12 12 11 19 15 28 20 20 25 20 61 76 78 75 81 82 80 79 80 75 70 66 63 65 69 72 76 74 74 73 68 65 63 66 65 65 64 67 68 68 68 70 69 66 67 67 70
32 13 17 13 13 3 8 7 14 16 21 24 53 76 89 93 84 84 81 71 69 67 72 70 69 69 67 69 71 72 72 71 68 67 63 62 63 65 66 69 72 74 76 76 75 74 73 74 75
12 13 8 5 3 21 36 18 22 20 23 27 48 61 91 93 99 99 93 81 77 68 66 68 71 72 73 72 68 72 70 68 68 65 64 64 61 62 61 64 68 71 74 75 77 79 80 79 81
23 23 11 20 15 29 19 14 53 8 17 21 39 67 91 85 94 100 96 85 81 78 79 72 71 70 71 77 74 72 66 64 64 64 63 66 63 61 59 57 59 61 61 64 69 74 78 82 87
61 49 12 20 19 28 10 23 25 22 52 46 64 70 57 67 74 69 67 66 74 84 80 77 73 63 64 70 74 73 71 72 71 70 72 70 68 64 62 61 59 58 59 60 63 67 69 72 78
41 38 29 11 6 5 10 21 17 17 17 43 55 58 67 70 60 59 54 61 58 67 76 69 70 66 62 62 65 72 72 72 73 71 72 72 71 69 66 66 64 60 58 58 60 65 67 67 70
29 46 28 11 17 12 12 17 32 25 27 21 20 52 75 64 61 59 61 54 43 50 68 64 65 63 58 54 56 59 60 62 63 62 63 62 62 62 63 63 63 62 60 57 58 63 66 71 72
29 28 18 15 12 11 20 26 18 30 32 35 39 68 89 84 68 59 58 51 42 44 52 56 58 55 52 49 46 47 49 50 50 52 54 56 57 58 57 57 59 58 59 58 58 61 63 66 72
49 40 46 27 31 28 4 31 8 21 35 46 57 88 95 93 76 52 53 54 50 45 44 44 45 45 39 35 37 37 36 36 37 39 41 44 47 49 50 52 53 53 53 54 56 62 60 69 74
Wind_Direction_500mb
339 345 347 10 51 66 327 245 89 137 186 199 150 165 165 92 141 199 145 156 156 156 154 152 151 150 147 142 137 130 125 116 102 79 67 64 84 95 98 101 101 99 96 93 80 81 80 80 78
341 351 358 28 80 67 269 261 207 181 138 115 104 95 91 118 127 141 149 160 155 156 153 159 164 158 147 148 145 142 139 113 100 67 66 84 98 99 101 104 101 101 101 85 81 80 84 80 82
346 353 13 78 97 164 212 209 186 129 152 110 118 96 95 163 174 165 166 164 165 176 179 172 173 164 158 160 161 169 179 167 119 98 83 98 99 96 100 102 108 108 102 85 82 83 85 85 87
354 13 45 71 278 244 217 189 156 133 205 188 145 85 104 224 160 162 164 168 169 178 180 186 174 179 180 181 185 181 201 183 131 108 103 116 107 99 97 97 98 103 102 88 88 84 82 86 90
355 27 47 36 282 272 258 176 160 150 164 148 172 164 141 149 158 172 167 174 178 181 182 187 179 185 188 184 185 192 196 145 132 133 133 123 112 104 98 96 98 102 102 98 94 89 89 91 93
22 51 62 258 264 305 240 173 160 160 159 158 143 137 160 177 179 172 168 174 179 196 198 192 182 184 188 187 185 193 212 158 151 148 135 120 118 112 108 105 107 106 108 100 97 95 92 91 93
83 74 212 235 271 307 203 177 174 171 173 206 159 134 187 178 175 174 170 171 182 192 206 202 190 189 188 196 192 199 175 155 160 163 155 148 133 132 124 110 108 116 120 113 103 100 98 96 93
19 84 164 244 223 258 190 171 197 174 203 189 176 185 192 182 172 173 175 186 191 196 207 209 202 191 187 185 181 177 162 164 170 168 174 166 156 142 134 128 122 117 115 112 114 115 107 101 101
313 41 207 241 178 244 171 170 170 187 175 179 201 224 233 181 176 179 182 193 194 200 204 202 205 193 181 183 175 175 175 182 182 176 167 160 155 137 144 136 123 119 124 136 141 131 123 114 111
269 170 215 220 210 233 209 190 167 168 177 214 218 219 208 183 187 189 193 195 196 203 202 200 200 203 192 185 192 187 188 189 190 183 179 157 167 167 167 160 153 151 152 156 161 159 136 105 116
256 214 249 281 264 260 219 224 179 157 228 217 216 207 193 187 195 199 202 208 207 208 207 201 204 204 205 203 196 198 201 194 183 179 180 174 171 180 184 175 170 160 160 170 180 198 235 242 236
229 251 269 290 333 287 209 205 208 184 216 236 232 222 201 196 200 203 205 211 212 212 214 208 206 212 208 214 213 207 205 198 192 187 190 188 187 192 195 193 193 190 191 200 216 234 243 257 261
183 311 329 296 293 292 242 216 206 215 213 227 211 210 211 207 207 207 210 217 217 217 213 216 214 215 213 216 220 219 215 213 210 205 200 204 204 205 210 214 214 214 217 226 238 246 251 253 261
161 343 325 298 295 276 236 233 196 237 217 226 205 210 210 211 210 207 211 217 218 219 216 217 219 219 223 225 227 229 224 220 220 217 213 215 219 222 220 221 224 230 235 243 249 255 260 259 261
193 350 314 285 267 244 257 268 227 218 210 216 207 211 210 213 213 217 217 218 219 220 219 220 222 224 226 229 229 228 227 225 226 225 223 225 226 228 230 230 229 233 242 249 255 259 262 264 266
126 108 271 289 229 253 143 260 250 213 206 213 212 212 212 217 221 222 223 225 225 225 225 224 223 226 229 229 230 230 231 232 231 231 233 233 234 237 237 238 237 236 246 253 257 260 262 264 266
180 211 217 252 210 222 209 262 249 225 211 221 219 218 218 222 225 228 228 229 228 229 229 229 229 230 232 234 233 233 234 237 237 236 238 238 239 241 243 245 245 245 249 254 256 259 261 264 266
203 209 206 203 187 190 198 258 265 267 222 230 230 227 225 228 233 231 231 232 232 232 234 235 235 237 236 238 238 237 238 238 239 240 241 242 244 244 247 249 248 248 252 255 257 261 263 266 267
175 197 232 235 178 162 222 250 261 254 243 243 237 235 233 232 235 234 233 235 235 234 234 235 235 236 236 236 237 237 239 241 243 243 245 246 247 249 249 251 252 251 255 260 261 263 265 266 267
230 214 225 271 144 195 265 254 252 214 244 242 243 241 239 239 238 238 234 234 235 238 237 237 236 237 239 240 241 244 248 250 251 254 253 252 252 253 254 255 257 258 260 262 262 263 264 265 263
216 226 212 235 92 307 332 263 239 243 243 250 250 252 248 243 240 239 237 236 236 238 240 238 238 239 240 242 244 245 248 252 252 251 253 254 255 255 257 259 260 260 260 262 263 263 265 267 267
219 190 171 169 169 232 188 260 239 231 227 229 246 244 244 243 244 247 247 244 241 246 242 242 242 242 243 241 243 245 248 252 259 261 263 263 261 262 262 263 263 264 263 263 265 266 266 266 268
235 162 187 185 207 237 215 272 260 181 232 231 241 240 243 243 243 243 244 243 241 246 238 241 242 243 243 243 241 246 248 254 260 264 267 267 266 264 264 265 267 267 268 267 267 268 267 267 267
132 122 85 46 158 240 230 214 229 213 206 230 239 242 247 244 247 247 248 248 247 245 238 238 241 242 242 243 243 245 250 253 258 263 266 269 272 271 271 270 268 269 270 271 272 271 270 269 268
191 163 196 216 226 239 187 195 237 226 207 214 230 238 245 250 250 250 248 246 241 238 238 238 243 245 245 243 244 246 251 254 258 263 267 268 273 275 278 280 277 276 277 276 276 274 274 273 271
199 190 186 188 197 225 155 225 243 218 220 236 241 245 248 250 251 252 250 243 242 239 235 236 240 243 244 244 244 247 250 253 258 264 268 272 276 279 281 282 281 279 279 280 281 280 280 279 277
192 206 198 101 14 61 194 275 282 251 242 221 233 241 249 247 249 247 243 242 244 230 226 233 236 243 243 248 250 251 254 256 260 264 268 272 275 278 283 286 287 286 285 284 283 283 283 283 282
182 201 193 194 175 214 227 245 231 195 215 234 246 241 239 236 240 240 231 230 231 221 220 229 234 240 244 246 248 249 251 254 259 264 266 270 275 279 282 283 284 286 284 283 282 281 283 284 284
196 194 217 211 163 204 250 247 198 201 209 217 226 231 233 233 234 236 225 216 214 214 218 225 230 233 235 237 236 238 242 247 252 259 266 271 273 274 276 280 282 283 284 285 283 282 283 281 283
215 205 200 208 205 219 250 251 192 215 207 208 215 228 234 238 230 223 206 200 202 202 206 211 217 224 225 224 226 231 236 243 251 259 266 270 274 277 278 278 275 276 277 280 282 284 282 283 280
Wind_Speed_850mb
21 26 27 9 8 9 1 5 2 7 2 4 9 7 10 6 5 5 35 35 41 35 30 24 20 20 19 19 18 21 16 12 9 7 6 8 12 17 18 23 27 27 29 30 30 32 31 31 35
23 22 17 6 9 6 6 4 8 8 18 30 20 11 7 2 8 22 44 44 43 33 24 17 19 19 22 21 20 18 10 6 8 6 5 13 17 21 24 26 29 28 28 29 31 28 30 32 32
22 19 11 8 6 5 7 7 9 8 32 5 8 8 4 6 12 33 28 54 50 28 18 18 18 22 24 24 20 13 8 5 6 7 9 16 23 23 25 25 28 26 26 26 27 26 30 30 30
22 9 9 7 4 4 5 9 13 16 9 6 14 12 7 2 24 30 43 52 41 27 21 16 19 21 23 22 19 15 12 12 13 11 11 15 22 24 23 23 24 24 22 25 23 25 28 27 27
17 7 7 3 8 5 6 17 27 10 8 11 8 9 10 21 17 22 44 45 35 28 21 15 16 18 20 21 19 18 14 24 23 18 12 18 23 23 22 21 21 21 18 20 23 23 23 25 27
6 4 7 4 7 5 4 18 15 8 12 13 9 16 11 21 16 35 35 32 28 22 18 15 14 17 17 20 20 20 13 26 29 25 19 16 23 21 19 19 20 18 15 16 20 20 21 23 25
4 7 5 4 6 7 9 21 12 14 12 12 17 10 9 27 23 36 31 25 22 23 19 15 16 16 18 21 24 19 16 20 27 24 26 19 16 18 18 16 16 15 13 13 15 16 17 19 21
13 5 4 6 5 10 9 22 10 18 13 9 21 10 9 38 39 39 31 24 22 23 20 18 17 18 18 22 27 27 29 25 23 19 23 22 17 20 18 15 14 13 12 11 11 12 14 16 17
7 1 5 8 10 10 14 10 13 12 15 19 19 10 10 40 48 47 45 38 32 29 26 24 19 20 20 19 26 31 35 32 24 17 15 25 20 16 16 13 12 12 12 11 9 9 10 10 11
5 6 15 11 8 8 17 20 33 14 20 19 19 22 16 45 53 54 54 49 40 35 32 26 24 21 21 23 18 21 26 26 21 17 11 16 16 15 15 14 14 15 14 13 10 5 3 4 5
4 8 6 11 19 22 16 11 28 21 7 29 36 35 31 52 54 54 50 46 37 32 32 30 26 25 24 22 20 16 12 13 13 12 11 13 13 12 13 12 10 9 9 9 8 7 5 3 4
8 11 28 14 15 8 10 12 13 34 21 24 30 30 39 53 58 58 56 52 45 39 34 30 30 27 26 24 21 19 18 18 20 20 20 17 15 14 14 14 13 11 10 9 8 9 11 11 10
8 5 21 33 42 24 15 22 15 38 24 15 28 33 43 47 53 53 53 50 47 43 37 33 32 31 30 27 24 23 20 18 18 18 17 15 13 13 14 14 13 13 11 11 11 11 12 13 15
15 7 30 31 44 24 8 9 13 20 40 26 30 37 45 45 51 53 58 57 53 46 41 35 33 33 32 30 27 25 23 22 22 22 19 17 15 15 15 16 15 15 15 16 16 16 15 16 17
9 10 31 41 37 17 5 12 15 18 32 30 38 43 47 50 51 54 50 56 54 49 43 39 35 36 35 32 33 29 28 28 27 25 25 22 20 19 18 18 17 17 19 21 20 20 21 21 21
10 8 13 12 15 15 14 18 19 26 34 36 39 47 50 52 54 51 51 52 53 53 51 45 41 41 38 35 35 32 31 33 31 31 31 28 25 24 23 23 21 21 23 23 24 24 26 26 27
22 18 34 31 31 4 3 12 18 30 37 42 44 49 52 54 56 54 54 53 54 55 54 52 50 47 44 40 38 37 37 38 38 38 37 35 33 32 31 29 25 26 28 29 29 29 31 31 32
24 30 24 24 11 1 11 33 19 11 34 47 50 53 56 58 60 52 53 55 58 58 57 57 55 53 50 48 46 46 45 45 45 46 46 42 41 39 38 35 34 35 36 36 35 36 37 37 36
15 10 29 21 9 13 29 30 20 33 22 48 54 57 61 64 57 56 53 53 56 61 64 64 64 63 61 61 60 60 60 54 52 52 50 49 48 46 46 45 43 44 45 43 42 42 43 44 43
24 25 26 11 8 13 10 30 31 17 29 48 60 67 68 69 66 63 58 58 58 56 59 67 69 69 69 67 65 65 61 62 58 54 55 56 56 55 54 53 51 50 53 53 52 51 53 53 49
36 35 17 10 7 5 5 20 16 15 50 60 61 57 70 76 75 69 67 67 62 60 61 62 66 71 72 72 69 68 70 70 68 68 65 63 61 60 60 60 59 59 59 62 61 60 61 62 58
47 19 12 12 11 19 15 28 20 20 25 20 61 76 78 75 81 82 80 79 80 75 70 66 63 65 69 72 76 74 74 73 68 65 63 66 65 65 64 67 68 68 68 70 69 66 67 67 70
32 13 17 13 13 3 8 7 14 16 21 24 53 76 89 93 84 84 81 71 69 67 72 70 69 69 67 69 71 72 72 71 68 67 63 62 63 65 66 69 72 74 76 76 75 74 73 74 75
12 13 8 5 3 21 36 18 22 20 23 27 48 61 91 93 99 99 93 81 77 68 66 68 71 72 73 72 68 72 70 68 68 65 64 64 61 62 61 64 68 71 74 75 77 79 80 79 81
23 23 11 20 15 29 19 14 53 8 17 21 39 67 91 85 94 100 96 85 81 78 79 72 71 70 71 77 74 72 66 64 64 64 63 66 63 61 59 57 59 61 61 64 69 74 78 82 87
61 49 12 20 19 28 10 23 25 22 52 46 64 70 57 67 74 69 67 66 74 84 80 77 73 63 64 70 74 73 71 72 71 70 72 70 68 64 62 61 59 58 59 60 63 67 69 72 78
41 38 29 11 6 5 10 21 17 17 17 43 55 58 67 70 60 59 54 61 58 67 76 69 70 66 62 62 65 72 72 72 73 71 72 72 71 69 66 66 64 60 58 58 60 65 67 67 70
29 46 28 11 17 12 12 17 32 25 27 21 20 52 75 64 61 59 61 54 43 50 68 64 65 63 58 54 56 59 60 62 63 62 63 62 62 62 63 63 63 62 60 57 58 63 66 71 72
29 28 18 15 12 11 20 26 18 30 32 35 39 68 89 84 68 59 58 51 42 44 52 56 58 55 52 49 46 47 49 50 50 52 54 56 57 58 57 57 59 58 59 58 58 61 63 66 72
49 40 46 27 31 28 4 31 8 21 35 46 57 88 95 93 76 52 53 54 50 45 44 44 45 45 39 35 37 37 36 36 37 39 41 44 47 49 50 52 53 53 53 54 56 62 60 69 74
Wind_Direction_850mb
339 345 347 10 51 66 327 245 89 137 186 199 150 165 165 92 141 199 145 156 156 156 154 152 151 150 147 142 137 130 125 116 102 79 67 64 84 95 98 101 101 99 96 93 80 81 80 80 78
341 351 358 28 80 67 269 261 207 181 138 115 104 95 91 118 127 141 149 160 155 156 153 159 164 158 147 148 145 142 139 113 100 67 66 84 98 99 101 104 101 101 101 85 81 80 84 80 82
346 353 13 78 97 164 212 209 186 129 152 110 118 96 95 163 174 165 166 164 165 176 179 172 173 164 158 160 161 169 179 167 119 98 83 98 99 96 100 102 108 108 102 85 82 83 85 85 87
354 13 45 71 278 244 217 189 156 133 205 188 145 85 104 224 160 162 164 168 169 178 180 186 174 179 180 181 185 181 201 183 131 108 103 116 107 99 97 97 98 103 102 88 88 84 82 86 90
355 27 47 36 282 272 258 176 160 150 164 148 172 164 141 149 158 172 167 174 178 181 182 187 179 185 188 184 185 192 196 145 132 133 133 123 112 104 98 96 98 102 102 98 94 89 89 91 93
22 51 62 258 264 305 240 173 160 160 159 158 143 137 160 177 179 172 168 174 179 196 198 192 182 184 188 187 185 193 212 158 151 148 135 120 118 112 108 105 107 106 108 100 97 95 92 91 93
83 74 212 235 271 307 203 177 174 171 173 206 159 134 187 178 175 174 170 171 182 192 206 202 190 189 188 196 192 199 175 155 160 163 155 148 133 132 124 110 108 116 120 113 103 100 98 96 93
19 84 164 244 223 258 190 171 197 174 203 189 176 185 192 182 172 173 175 186 191 196 207 209 202 191 187 185 181 177 162 164 170 168 174 166 156 142 134 128 122 117 115 112 114 115 107 101 101
313 41 207 241 178 244 171 170 170 187 175 179 201 224 233 181 176 179 182 193 194 200 204 202 205 193 181 183 175 175 175 182 182 176 167 160 155 137 144 136 123 119 124 136 141 131 123 114 111
269 170 215 220 210 233 209 190 167 168 177 214 218 219 208 183 187 189 193 195 196 203 202 200 200 203 192 185 192 187 188 189 190 183 179 157 167 167 167 160 153 151 152 156 161 159 136 105 116
256 214 249 281 264 260 219 224 179 157 228 217 216 207 193 187 195 199 202 208 207 208 207 201 204 204 205 203 196 198 201 194 183 179 180 174 171 180 184 175 170 160 160 170 180 198 235 242 236
229 251 269 290 333 287 209 205 208 184 216 236 232 222 201 196 200 203 205 211 212 212 214 208 206 212 208 214 213 207 205 198 192 187 190 188 187 192 195 193 193 190 191 200 216 234 243 257 261
183 311 329 296 293 292 242 216 206 215 213 227 211 210 211 207 207 207 210 217 217 217 213 216 214 215 213 216 220 219 215 213 210 205 200 204 204 205 210 214 214 214 217 226 238 246 251 253 261
161 343 325 298 295 276 236 233 196 237 217 226 205 210 210 211 210 207 211 217 218 219 216 217 219 219 223 225 227 229 224 220 220 217 213 215 219 222 220 221 224 230 235 243 249 255 260 259 261
193 350 314 285 267 244 257 268 227 218 210 216 207 211 210 213 213 217 217 218 219 220 219 220 222 224 226 229 229 228 227 225 226 225 223 225 226 228 230 230 229 233 242 249 255 259 262 264 266
126 108 271 289 229 253 143 260 250 213 206 213 212 212 212 217 221 222 223 225 225 225 225 224 223 226 229 229 230 230 231 232 231 231 233 233 234 237 237 238 237 236 246 253 257 260 262 264 266
180 211 217 252 210 222 209 262 249 225 211 221 219 218 218 222 225 228 228 229 228 229 229 229 229 230 232 234 233 233 234 237 237 236 238 238 239 241 243 245 245 245 249 254 256 259 261 264 266
203 209 206 203 187 190 198 258 265 267 222 230 230 227 225 228 233 231 231 232 232 232 234 235 235 237 236 238 238 237 238 238 239 240 241 242 244 244 247 249 248 248 252 255 257 261 263 266 267
175 197 232 235 178 162 222 250 261 254 243 243 237 235 233 232 235 234 233 235 235 234 234 235 235 236 236 236 237 237 239 241 243 243 245 246 247 249 249 251 252 251 255 260 261 263 265 266 267
230 214 225 271 144 195 265 254 252 214 244 242 243 241 239 239 238 238 234 234 235 238 237 237 236 237 239 240 241 244 248 250 251 254 253 252 252 253 254 255 257 258 260 262 262 263 264 265 263
216 226 212 235 92 307 332 263 239 243 243 250 250 252 248 243 240 239 237 236 236 238 240 238 238 239 240 242 244 245 248 252 252 251 253 254 255 255 257 259 260 260 260 262 263 263 265 267 267
219 190 171 169 169 232 188 260 239 231 227 229 246 244 244 243 244 247 247 244 241 246 242 242 242 242 243 241 243 245 248 252 259 261 263 263 261 262 262 263 263 264 263 263 265 266 266 266 268
235 162 187 185 207 237 215 272 260 181 232 231 241 240 243 243 243 243 244 243 241 246 238 241 242 243 243 243 241 246 248 254 260 264 267 267 266 264 264 265 267 267 268 267 267 268 267 267 267
132 122 85 46 158 240 230 214 229 213 206 230 239 242 247 244 247 247 248 248 247 245 238 238 241 242 242 243 243 245 250 253 258 263 266 269 272 271 271 270 268 269 270 271 272 271 270 269 268
191 163 196 216 226 239 187 195 237 226 207 214 230 238 245 250 250 250 248 246 241 238 238 238 243 245 245 243 244 246 251 254 258 263 267 268 273 275 278 280 277 276 277 276 276 274 274 273 271
199 190 186 188 197 225 155 225 243 218 220 236 241 245 248 250 251 252 250 243 242 239 235 236 240 243 244 244 244 247 250 253 258 264 268 272 276 279 281 282 281 279 279 280 281 280 280 279 277
192 206 198 101 14 61 194 275 282 251 242 221 233 241 249 247 249 247 243 242 244 230 226 233 236 243 243 248 250 251 254 256 260 264 268 272 275 278 283 286 287 286 285 284 283 283 283 283 282
182 201 193 194 175 214 227 245 231 195 215 234 246 241 239 236 240 240 231 230 231 221 220 229 234 240 244 246 248 249 251 254 259 264 266 270 275 279 282 283 284 286 284 283 282 281 283 284 284
196 194 217 211 163 204 250 247 198 201 209 217 226 231 233 233 234 236 225 216 214 214 218 225 230 233 235 237 236 238 242 247 252 259 266 271 273 274 276 280 282 283 284 285 283 282 283 281 283
215 205 200 208 205 219 250 251 192 215 207 208 215 228 234 238 230 223 206 200 202 202 206 211 217 224 225 224 226 231 236 243 251 259 266 270 274 277 278 278 275 276 277 280 282 284 282 283 280